Terminal Aerodrome Forecast
Issued by NWS

Home | Current Version | Previous Version | Text Only | Print | Product List | Glossary On
Versions: 1 2 3 4 5 6 7 8 9 10 11 12 13 14 15 16 17 18 19 20 21 22 23 24
000
FTUS45 KGJT 152339
TAFTEX
TAF
KTEX 152339Z 1600/1624 28008G15KT P6SM FEW090 SCT140
     FM160200 13005KT P6SM FEW100 SCT250
     FM161700 28005KT P6SM FEW100
     FM161900 28007KT P6SM VCTS FEW090CB SCT140=

USA.gov is the U.S. government's official web portal to all federal, state and local government web resources and services.